www.pogodaiklimat.ru
ПОГОДА на Аэродроме Andrewsfield
Время
(UTC), дата
01 29.11
02 29.11
03 29.11
04 29.11
05 29.11
06 29.11
07 29.11
08 29.11
09 29.11
10 29.11
11 29.11
12 29.11
13 29.11
14 29.11
15 29.11
16 29.11
17 29.11
18 29.11
19 29.11
20 29.11
21 29.11
22 29.11
23 29.11
00 30.11
01 30.11
02 30.11
03 30.11
04 30.11
05 30.11
06 30.11
07 30.11
08 30.11
09 30.11
10 30.11
11 30.11
12 30.11
13 30.11
14 30.11
15 30.11
16 30.11
17 30.11
18 30.11
19 30.11
20 30.11
21 30.11
22 30.11
23 30.11
00 1.12
01 1.12
02 1.12
03 1.12
04 1.12
05 1.12
06 1.12
07 1.12
08 1.12
09 1.12
10 1.12
11 1.12
12 1.12
13 1.12
14 1.12
15 1.12
16 1.12
17 1.12
18 1.12
19 1.12
20 1.12
21 1.12
22 1.12
23 1.12
00 2.12
01 2.12
02 2.12
03 2.12
04 2.12
05 2.12
06 2.12
07 2.12
08 2.12
09 2.12
10 2.12
11 2.12
12 2.12
13 2.12
14 2.12
15 2.12
16 2.12
17 2.12
18 2.12
19 2.12
20 2.12
21 2.12
22 2.12
23 2.12
00 3.12
01 3.12
02 3.12
03 3.12
04 3.12
05 3.12
06 3.12
07 3.12
08 3.12
09 3.12
10 3.12
16 3.12
17 3.12
18 3.12
19 3.12
20 3.12
21 3.12
22 3.12
23 3.12
00 4.12
01 4.12
02 4.12
03 4.12
04 4.12
05 4.12
06 4.12
07 4.12
08 4.12
09 4.12
10 4.12
11 4.12
12 4.12
13 4.12
14 4.12
15 4.12
16 4.12
17 4.12
18 4.12
19 4.12
20 4.12
21 4.12
22 4.12
23 4.12
00 5.12
01 5.12
02 5.12
03 5.12
04 5.12
05 5.12
06 5.12
07 5.12
08 5.12
09 5.12
10 5.12
11 5.12
12 5.12
13 5.12
14 5.12
15 5.12
16 5.12
17 5.12
18 5.12
19 5.12
20 5.12
21 5.12
22 5.12
23 5.12
Ветер
(напр.,м/с)
Видим. Явления Облачность Т
(С)
Тd
(С)
f
(%)
Тe
(С)
Тes
(С)
Комфортность P
(гПа)
Po
(гПа)
Тmin
(С)
Tmax
(С)
R
(мм)
R24
(мм)
S
(см)
С 2 30 км н/о +4.7 +3.8 94 +2 +2 по сезону 1006.2 995.5
С 3 30 км н/о +4.3 +3.4 94 +1 +1 по сезону 1007.0 996.3
С 3 30 км н/о +3.9 +2.8 93 -0 -0 по сезону 1007.8 997.1
СЗ 3 30 км н/о +3.0 +1.9 92 -1 -1 по сезону 1008.9 998.1
С 3 28 км н/о +2.5 +1.6 94 -2 -2 по сезону 1009.7 998.9
С 3 19 км н/о +2.0 +1.4 96 -3 -3 прохладно 1010.7 999.8 +2.0 0.8 2.0
С 3 13 км н/о +1.6 +1.2 97 -3 -3 прохладно 1011.8 1001.0
СЗ 2 7000 м дымка н/о +1.1 +0.8 98 -3 -3 прохладно 1013.0 1002.1
СЗ 3 5000 м дымка н/о +1.8 +1.6 99 -2 -2 по сезону 1014.1 1003.2
СЗ 3 11 км н/о +2.9 +2.6 98 -1 -1 по сезону 1015.1 1004.2
СЗ 3 18 км н/о +4.1 +3.4 95 +1 +1 по сезону 1016.3 1005.4
С 3 28 км н/о +5.1 +3.5 89 +2 +2 по сезону 1016.5 1005.7
С 3 24 км н/о +5.6 +4.1 90 +2 +2 по сезону 1017.1 1006.3
С 2 45 км н/о +6.0 +3.3 83 +4 +4 по сезону 1017.7 1006.9
СЗ 2 35 км н/о +5.9 +3.2 83 +3 +3 по сезону 1018.2 1007.5
СЗ 2 30 км н/о +4.7 +3.0 89 +2 +2 по сезону 1019.3 1008.4
СЗ 2 26 км н/о +3.7 +2.7 93 +1 +1 по сезону 1020.0 1009.1
СЗ 2 18 км н/о +2.8 +2.3 97 0 0 по сезону 1020.6 1009.7 +6.3
С 2 12 км н/о +2.1 +1.6 96 -1 -1 по сезону 1021.2 1010.2
С 2 10 км н/о +1.5 +1.0 96 -2 -2 по сезону 1021.6 1010.6
С 2 10 км н/о +1.7 +1.4 98 -1 -1 по сезону 1021.7 1010.8
СЗ 1 5000 м дымка н/о +0.6 +0.3 98 -2 -2 по сезону 1022.0 1011.0
С 1 4100 м дымка н/о +1.0 +0.9 99 -1 -1 по сезону 1022.4 1011.4
С 1 2500 м в посл. час туман н/о -0.2 -0.4 99 -3 -3 прохладно 1022.8 1011.8
С 2 3400 м дымка н/о +1.0 +1.0 100 -3 -3 прохладно 1022.6 1011.6
СВ 2 2100 м дымка н/о -0.3 -0.3 100 -4 -4 прохладно 1023.1 1012.0
СВ 2 2200 м дымка н/о -0.8 -0.9 99 -4 -4 прохладно 1023.0 1012.0
СВ 3 1500 м в посл. час туман н/о -0.5 -0.5 100 -5 -5 холодно 1022.6 1011.5
СВ 2 3200 м в посл. час туман н/о -0.5 -0.5 100 -4 -4 прохладно 1022.5 1011.4
ЮВ 1 2400 м дымка н/о -0.7 -0.7 100 -2 -2 по сезону 1022.5 1011.5 -1.0
В 2 5000 м дымка н/о -1.0 -1.0 100 -5 -5 холодно 1022.6 1011.5
СВ 2 6000 м дымка н/о -0.8 -0.8 100 -5 -5 холодно 1023.0 1011.9
СВ 3 13 км н/о +0.6 +0.6 100 -4 -4 прохладно 1022.9 1011.9
СВ 3 21 км н/о +1.9 +1.7 99 -3 -3 прохладно 1023.1 1012.1
В 3 25 км н/о +3.3 +2.5 94 -1 -1 по сезону 1023.1 1012.1
В 3 35 км в посл. час дождь н/о +4.2 +3.4 95 +1 +1 по сезону 1022.5 1011.6 0.2
В 3 60 км в посл. час дождь н/о +6.0 +4.4 89 +3 +3 по сезону 1021.9 1011.1
В 3 65 км н/о +6.2 +4.0 86 +3 +3 по сезону 1021.7 1010.9
В 4 55 км в посл. час дождь н/о +5.5 +3.8 89 +2 +2 по сезону 1021.6 1010.8
СВ 3 45 км н/о +4.4 +3.4 93 +1 +1 по сезону 1021.6 1010.7
СВ 4 55 км н/о +3.7 +2.7 93 -1 -1 по сезону 1021.5 1010.6
СВ 4 65 км н/о +3.2 +2.3 94 -1 -1 по сезону 1021.7 1010.8 +6.3 0.2
СВ 4 60 км н/о +3.0 +2.1 94 -2 -2 по сезону 1021.9 1011.0
СВ 4 45 км н/о +2.5 +1.8 95 -2 -2 по сезону 1021.9 1010.9
СВ 4 40 км н/о +2.5 +2.0 96 -3 -3 прохладно 1021.3 1010.3
СВ 4 35 км н/о +2.4 +2.0 97 -2 -2 по сезону 1021.7 1010.7
СВ 4 30 км н/о +2.7 +2.3 97 -2 -2 по сезону 1021.4 1010.5
СВ 3 40 км н/о +2.9 +2.3 96 -1 -1 по сезону 1021.8 1010.9
СВ 3 45 км н/о +3.5 +2.9 96 -1 -1 по сезону 1021.7 1010.8
СВ 4 40 км н/о +3.8 +3.2 96 -1 -1 по сезону 1021.2 1010.3
СВ 4 40 км н/о +4.0 +3.2 95 -0 -0 по сезону 1021.2 1010.4
СВ 4 40 км н/о +3.9 +3.1 95 -1 -1 по сезону 1020.8 1009.9
СВ 4 35 км н/о +4.1 +3.3 95 -1 -1 по сезону 1020.7 1009.9
СВ 5 70 км н/о +4.2 +2.8 91 -1 -1 по сезону 1020.6 1009.7 +2.1 0.2
СВ 4 >70 км н/о +3.7 +2.2 90 -1 -1 по сезону 1021.4 1010.5
СВ 4 >70 км н/о +3.5 +1.9 89 -1 -1 по сезону 1021.9 1011.0
СВ 4 60 км н/о +3.6 +2.1 90 -1 -1 по сезону 1022.6 1011.7
СВ 4 >70 км н/о +4.3 +2.6 89 -0 -0 по сезону 1023.1 1012.2
С 5 >70 км н/о +5.2 +3.5 89 +1 +1 по сезону 1023.7 1012.8
СВ 5 >70 км в посл. час дождь н/о +5.7 +4.0 89 +1 +1 по сезону 1023.3 1012.4 0.0
СВ 5 35 км в посл. час дождь н/о +6.0 +4.3 89 +2 +2 по сезону 1023.4 1012.6
СВ 5 >70 км н/о +6.4 +4.1 85 +2 +2 по сезону 1023.2 1012.3
СВ 4 >70 км н/о +6.5 +3.4 81 +3 +3 по сезону 1023.6 1012.8
С 5 >70 км н/о +5.8 +3.3 84 +2 +2 по сезону 1024.6 1013.8
С 3 >70 км н/о +4.6 +2.7 87 +1 +1 по сезону 1025.5 1014.6
С 4 60 км н/о +3.8 +2.9 94 -1 -1 по сезону 1026.0 1015.0 +6.7 0.2
С 3 45 км н/о +2.9 +2.2 95 -1 -1 по сезону 1026.3 1015.3
С 4 25 км н/о +2.4 +1.8 96 -2 -2 по сезону 1026.8 1015.8
С 3 11 км н/о +1.9 +1.5 97 -3 -3 прохладно 1027.4 1016.4
С 4 12 км н/о +1.6 +1.1 96 -3 -3 прохладно 1028.0 1016.9
С 4 19 км н/о +1.2 +0.3 94 -4 -4 прохладно 1028.1 1017.1
С 4 17 км н/о +0.9 0.0 94 -5 -5 холодно 1028.4 1017.3
С 4 22 км н/о +0.8 -0.3 92 -4 -4 прохладно 1028.5 1017.4
СЗ 3 28 км н/о +0.7 -0.7 90 -4 -4 прохладно 1029.0 1017.9
СЗ 4 24 км н/о +0.5 -0.7 92 -5 -5 холодно 1029.0 1017.9
СЗ 3 22 км н/о +0.5 -0.8 91 -4 -4 прохладно 1029.3 1018.2
СЗ 3 21 км н/о +0.2 -1.1 91 -5 -5 холодно 1029.5 1018.4
СЗ 3 19 км н/о -0.1 -1.3 92 -5 -5 холодно 1029.7 1018.6 -0.1 0.2 14
СЗ 3 19 км н/о -0.1 -1.5 90 -5 -5 холодно 1030.2 1019.1
СЗ 3 18 км н/о -0.2 -1.5 91 -5 -5 холодно 1030.5 1019.4
З 2 21 км н/о +0.2 -1.4 89 -3 -3 прохладно 1030.9 1019.7
З 2 29 км н/о +1.6 -0.7 85 -2 -2 по сезону 1031.1 1020.0
СЗ 4 30 км н/о +2.7 -0.1 82 -2 -2 по сезону 1031.0 1020.0
СЗ 3 50 км н/о +4.0 +0.4 77 +1 +1 по сезону 1031.1 1020.1
СЗ 3 60 км н/о +5.0 +1.2 76 +2 +2 по сезону 1030.8 1019.9
СЗ 3 55 км н/о +5.5 +1.8 77 +2 +2 по сезону 1030.6 1019.7
СЗ 3 35 км н/о +4.9 +1.8 80 +1 +1 по сезону 1030.6 1019.6
З 3 27 км н/о +3.6 +1.6 87 0 0 по сезону 1030.6 1019.6
З 3 16 км н/о +2.6 +1.6 93 -2 -2 по сезону 1030.6 1019.5
З 3 12 км н/о +2.0 +1.3 95 -2 -2 по сезону 1030.6 1019.5 +5.6
З 3 11 км н/о +1.7 +1.4 98 -2 -2 по сезону 1030.9 1019.8
З 3 8000 м дымка н/о +1.4 +1.2 99 -3 -3 прохладно 1031.0 1019.9
З 2 4500 м дымка н/о +0.9 +0.6 98 -3 -3 прохладно 1030.9 1019.8
З 3 8000 м дымка н/о +1.6 +1.4 99 -3 -3 прохладно 1030.9 1019.8
З 2 8000 м дымка н/о +1.6 +1.4 99 -2 -2 по сезону 1031.0 1019.9
З 1 10 км дымка н/о +1.9 +1.7 99 -0 -0 по сезону 1031.0 1019.9
ЮЗ 2 4300 м дымка н/о +0.9 +0.6 98 -2 -2 по сезону 1030.6 1019.5
ЮЗ 2 6000 м дымка н/о +1.0 +0.8 99 -3 -3 прохладно 1030.1 1019.0
З 2 6000 м дымка н/о +0.9 +0.9 100 -3 -3 прохладно 1029.8 1018.7
З 2 6000 м дымка н/о +0.8 +0.7 99 -3 -3 прохладно 1029.1 1018.0
ЮЗ 3 7000 м дымка н/о +1.0 +0.8 99 -3 -3 прохладно 1029.0 1017.9
ЮЗ 3 8000 м дымка н/о +1.0 +0.9 99 -3 -3 прохладно 1028.8 1017.7 +0.5
ЮЗ 2 9000 м дымка н/о +1.4 +1.1 98 -2 -2 по сезону 1028.9 1017.8
ЮЗ 3 12 км н/о +1.6 +1.3 98 -3 -3 прохладно 1029.0 1018.0
ЮЗ 3 14 км н/о +3.2 +2.4 94 -1 -1 по сезону 1028.7 1017.7
ЮЗ 3 22 км н/о +3.8 +2.8 93 0 0 по сезону 1028.5 1017.5
ЮЗ 4 35 км н/о +6.4 +4.3 86 +3 +3 по сезону 1025.3 1014.4
ЮЗ 3 18 км н/о +5.3 +3.8 90 +2 +2 по сезону 1025.2 1014.3
ЮЗ 2 14 км н/о +4.1 +3.2 94 +2 +2 по сезону 1025.1 1014.2
ЮЗ 2 19 км н/о +5.1 +3.7 91 +2 +2 по сезону 1025.0 1014.1
ЮЗ 3 30 км н/о +5.4 +3.3 86 +2 +2 по сезону 1024.8 1013.9
ЮЗ 3 29 км н/о +5.3 +3.4 88 +2 +2 по сезону 1024.3 1013.5
Ю 3 27 км н/о +5.2 +3.4 88 +2 +2 по сезону 1023.8 1012.9
Ю 3 18 км н/о +4.4 +3.0 91 +1 +1 по сезону 1023.7 1012.8
ЮЗ 2 12 км н/о +3.0 +2.1 94 0 0 по сезону 1023.6 1012.6
Ю 2 8000 м дымка н/о +2.7 +2.2 97 -1 -1 по сезону 1023.1 1012.1
Ю 2 6000 м дымка н/о +2.7 +2.4 98 -1 -1 по сезону 1022.8 1011.8
Ю 2 3100 м дымка н/о +1.8 +1.6 99 -1 -1 по сезону 1022.3 1011.3
ЮЗ 2 3100 м в посл. час туман н/о +1.9 +1.7 99 -1 -1 по сезону 1022.0 1011.0
Ю 2 7000 м дымка н/о +2.7 +2.4 98 -1 -1 по сезону 1021.4 1010.4
Ю 2 5000 м дымка н/о +2.6 +2.4 99 -1 -1 по сезону 1021.1 1010.2 +1.5 5.6
Ю 2 3000 м дымка н/о +2.3 +2.2 99 -1 -1 по сезону 1021.2 1010.2
Ю 2 2900 м дымка н/о +2.3 +2.3 100 -1 -1 по сезону 1021.3 1010.3
ЮВ 2 1800 м в посл. час туман н/о +2.5 +2.4 99 -0 -0 по сезону 1021.5 1010.6
Ю 2 6000 м дымка н/о +4.4 +3.6 95 +2 +2 по сезону 1021.5 1010.6
ЮЗ 2 17 км н/о +6.0 +4.1 88 +4 +4 по сезону 1021.3 1010.5
Ю 2 21 км н/о +7.4 +4.4 81 +6 +6 тепло 1020.9 1010.1
ЮВ 3 35 км н/о +7.7 +3.9 77 +5 +5 тепло 1020.1 1009.4
Ю 1 30 км н/о +8.2 +3.0 70 +8 +8 тепло 1019.7 1008.9
ЮВ 2 20 км н/о +7.1 +4.0 81 +5 +5 тепло 1019.4 1008.7
ЮВ 3 13 км н/о +4.4 +2.7 89 +1 +1 по сезону 1019.3 1008.5
Ю 1 13 км н/о +4.1 +3.3 95 +2 +2 по сезону 1019.8 1009.0
Ю 1 11 км н/о +3.2 +2.9 98 +1 +1 по сезону 1020.4 1009.5 +8.4
З 1 3600 м дымка н/о +1.5 +1.1 97 +1 +1 по сезону 1020.5 1009.6
Ю 2 1000 м в посл. час туман н/о +0.6 +0.3 98 -3 -3 прохладно 1020.7 1009.7
ЮЗ 2 100 м туман н/о +0.4 +0.3 99 -3 -3 прохладно 1020.7 1009.7
ЮЗ 2 100 м туман н/о +1.0 +1.0 100 -3 -3 прохладно 1020.3 1009.3
З 2 500 м туман н/о +0.7 +0.7 100 -3 -3 прохладно 1020.7 1009.7
З 3 2400 м в посл. час туман н/о +0.3 +0.3 100 -4 -4 прохладно 1020.8 1009.8
З 3 1100 м в посл. час туман н/о -0.5 -0.6 99 -5 -5 холодно 1020.6 1009.5
З 4 4100 м в посл. час туман н/о +0.6 +0.6 100 -5 -5 холодно 1020.5 1009.5
ЮЗ 3 1500 м дымка н/о -1.2 -1.3 99 -6 -6 холодно 1020.2 1009.1
ЮЗ 3 2600 м дымка н/о -0.1 -0.1 100 -5 -5 холодно 1020.4 1009.4
ЮЗ 4 3400 м дымка н/о +1.0 +1.0 100 -4 -4 прохладно 1020.3 1009.3
З 3 3000 м дымка н/о +1.0 +0.9 99 -4 -4 прохладно 1020.4 1009.4 -1.4 0.2 0.2
ЮЗ 3 2300 м дымка н/о +0.7 +0.7 100 -4 -4 прохладно 1020.4 1009.4
ЮЗ 3 2500 м дымка н/о +0.5 +0.4 99 -4 -4 прохладно 1020.6 1009.5
З 5 1200 м дымка н/о +1.3 +1.3 100 -5 -5 холодно 1020.6 1009.6
ЮЗ 6 200 м слаб. ливневой дождь н/о +2.6 +2.6 100 -3 -3 прохладно 1020.3 1009.4
ЮЗ 5 300 м туман н/о +3.8 +3.8 100 -1 -1 по сезону 1020.0 1009.1
ЮЗ 6 2100 м в посл. час туман н/о +4.0 +4.0 100 -2 -2 по сезону 1019.5 1008.6 0.0 70.9
ЮЗ 5 8000 м дымка н/о +5.1 +4.8 98 0 0 по сезону 1018.5 1007.7
ЮЗ 5 12 км н/о +5.8 +4.7 93 +1 +1 по сезону 1017.5 1006.7
ЮЗ 5 18 км н/о +6.2 +5.0 92 +2 +2 по сезону 1016.3 1005.6
ЮЗ 7 40 км н/о +6.7 +4.5 86 +2 +2 по сезону 1015.3 1004.6
ЮЗ 8 45 км н/о +7.3 +4.7 84 +2 +2 по сезону 1014.7 1004.0
ЮЗ 9
{13}
40 км слаб. ливневой дождь н/о +7.9 +5.6 85 +3 +3 по сезону 1013.6 1002.9 +8.0 0.0
ЮЗ 8
{13}
55 км в посл. час дождь н/о +8.5 +5.8 83 +4 +4 по сезону 1013.5 1002.9
ЮЗ 10
{15}
50 км н/о +8.7 +6.0 83 +4 +4 по сезону 1013.0 1002.3
ЮЗ 9
{15}
45 км н/о +8.7 +6.3 85 +4 +4 по сезону 1012.5 1001.9
ЮЗ 10
{14}
45 км н/о +8.9 +6.5 85 +4 +4 по сезону 1011.6 1001.1
ЮЗ 9
{15}
40 км н/о +9.2 +7.1 87 +5 +5 тепло 1011.1 1000.5
Местоположение метеостанции Аэродром Andrewsfield (Великобритания): широта 51.88 долгота 0.45 высота над уровнем моря 87 м.
В архиве по умолчанию представлена погода на Аэродроме Andrewsfield за последнюю неделю. Архивные данные за месяц целиком и за предыдущие месяцы, начиная с января 2011 года, Вы можете получить, выбрав интересующий диапазон дат из раскрывающегося списка и нажав кнопку "Найти!".
*Определитесь, кто Вы:
Внимание! Время в таблицах - всемирное. Для получения местного времени необходимо прибавить поправку, которая равна 0 ч.
Смотрите также архив погоды в соседних городах и на ближайших метеорологических станциях:
Партнеры нашего сайта:      
Пояснения к столбцам:
  • Ветер - указаны скорость ветра в м/с - средняя за 10 мин, порывы в срок и между сроками (в фигурных скобках) и направление, откуда дует ветер: С - северный,
  • СВ - северо-восточный, В - восточный, ЮВ - юго-восточный, Ю - южный, ЮЗ - юго-западный, З - западный, СЗ - северо-западный.
  • Видимость - горизонтальная дальность видимости в метрах или километрах. При видимости от 1 до 10 км при отсутствии осадков обычно наблюдается дымка, при ухудшении видимости до 1 км и менее - туман. В сухую погоду видимость может ухудшаться дымом, пылью или мглою.
  • Явления - указаны атмосферные явления, наблюдавшиеся в срок или в последний час перед сроком; фигурными скобками обозначены явления, наблюдавшиеся между сроками (за 1-3 часа до срока); квадратными скобками обозначены град или гололедные отложения с указанием их диаметра в мм.
  • Облачность - указаны через наклонную черту общая и нижняя облачность в баллах и высота нижней границы облаков в метрах; квадратными скобками обозначены формы облаков: Ci - перистые, Cs - перисто-слоистые, Cc - перисто-кучевые, Ac - высококучевые, As - высокослоистые, Sc - слоисто-кучевые, Ns - слоисто-дождевые, Cu - кучевые, Cb - кучево-дождевые. Подробнее классификацию облаков см. в Атласе облаков (PDF).
  • T - Температура воздуха - температура, измеренная на высоте 2 м над землей.
  • Td - Температура точки росы - температура, при понижении до которой содержащийся в воздухе водяной пар достигнет насыщения.
  • f - Относительная влажность воздуха - влажноcть воздуха, измеренная на высоте 2 м над землей.
  • Te - Эффективная температура - температура, которую ощущает одетый по сезону человек в тени. Характеристика душности погоды. При расчете учитывается влияние влажности воздуха и скорости ветра на теплоощущения человека.
  • Tes - Эффективная температура на солнце - температура, которую ощущает человек, с поправкой на солнечный нагрев. Характеристика знойности погоды. Зависит от высоты солнца над горизонтом, облачности и скорости ветра. Ночью, в пасмурную погоду, а также при ветре 12 м/с и более поправка равна нулю.
  • P - Атмосферное давление - приведенное к уровню моря атмосферное давление.
  • Po - Атмосферное давление - измеренное на уровне метеостанции атмосферное давление.
  • Tmin - Минимальная температура - минимум температуры воздуха на высоте 2 м над землей.
  • Tmax - Максимальная температура - максимум температуры воздуха на высоте 2 м над землей.
  • R - Количество осадков - Количество выпавших осадков за период времени, мм. При наведении курсора мыши на число - период времени, за который выпало указанное количество осадков.
  • R24 - Количество осадков - Количество выпавших осадков за 24 часа, мм.
  • S - Снежный покров - Высота снежного покрова, см. При наведении курсора мыши на число - состояние снежного покрова и степень покрытия местности в баллах.